KB1WCR Weather Reports


time (UTC)temp
C
wind
direction
speed
KPH
gust
KPH
rain 1hr
cm
rain 24hr
cm
rain mn
cm
humidity
%
barometer
mb
20260902141501 19 319 0.0 0.0 0.00 0.00 0.00 82 1023.0
20260902140956 19 211 1.6 3.2 0.00 0.00 0.00 83 1023.2
20260902140451 18 289 1.6 3.2 0.00 0.00 0.00 85 1023.1
20260902135950 19 351 3.2 3.2 0.00 0.00 0.00 87 1022.8
20260902135446 19 40 1.6 3.2 0.00 0.00 0.00 88 1023.0
20260902134945 18 308 0.0 0.0 0.00 0.00 0.00 89 1022.8
20260902134441 18 45 1.6 3.2 0.00 0.00 0.00 89 1022.8
20260902133936 18 217 1.6 3.2 0.00 0.00 0.00 89 1022.9
20260902133431 18 123 4.8 4.8 0.00 0.00 0.00 90 1023.0
20260902132926 18 328 0.0 1.6 0.00 0.00 0.00 91 1023.0
20260902132421 18 350 3.2 4.8 0.00 0.00 0.00 91 1023.0
20260902131916 18 37 3.2 3.2 0.00 0.00 0.00 90 1023.0
20260902131413 18 359 1.6 3.2 0.00 0.00 0.00 91 1023.0
20260902130912 18 206 3.2 4.8 0.00 0.00 0.00 92 1023.0
20260902130408 17 326 0.0 0.0 0.00 0.00 0.00 94 1022.9
20260902125903 17 299 0.0 0.0 0.00 0.00 0.00 95 1022.9
20260902125359 17 254 1.6 1.6 0.00 0.00 0.00 96 1023.0
20260902124855 17 30 1.6 3.2 0.00 0.00 0.00 97 1023.0
20260902124350 17 324 1.6 1.6 0.00 0.00 0.00 98 1023.0
20260902123845 17 266 0.0 0.0 0.00 0.00 0.00 98 1023.1
20260902123342 16 302 0.0 0.0 0.00 0.00 0.00 99 1022.9
20260902122840 16 314 1.6 1.6 0.00 0.00 0.00 99 1022.9
20260902122336 16 41 3.2 4.8 0.00 0.00 0.00 99 1022.8
20260902121836 16 54 1.6 1.6 0.00 0.00 0.00 99 1023.1
20260902121331 16 352 1.6 1.6 0.00 0.00 0.00 99 1023.1
20260902120826 16 43 1.6 1.6 0.00 0.00 0.00 99 1023.3
20260902120323 16 354 0.0 0.0 0.00 0.00 0.00 99 1023.0
20260902115817 16 317 0.0 0.0 0.00 0.00 0.00 99 1023.0
20260902115314 16 282 0.0 0.0 0.00 0.00 0.00 99 1023.2
20260902114810 16 299 0.0 1.6 0.00 0.00 0.00 99 1022.9
20260902114305 16 282 0.0 1.6 0.00 0.00 0.00 99 1023.0
20260902113759 16 288 1.6 1.6 0.00 0.00 0.00 99 1023.0
20260902113255 16 328 1.6 1.6 0.00 0.00 0.00 99 1023.2
20260902112754 16 306 0.0 0.0 0.00 0.00 0.00 99 1022.9
20260902112252 16 336 1.6 3.2 0.00 0.00 0.00 99 1022.9
20260902111746 16 305 0.0 0.0 0.00 0.00 0.00 99 1022.8
20260902111243 16 304 0.0 0.0 0.00 0.00 0.00 99 1022.7
20260902110738 16 328 0.0 0.0 0.00 0.00 0.00 99 1022.9
20260902110234 16 337 0.0 0.0 0.00 0.00 0.00 99 1022.5
20260902105734 16 332 0.0 0.0 0.00 0.00 0.00 99 1022.7
20260902105229 16 327 0.0 0.0 0.00 0.00 0.00 99 1022.6
20260902104724 16 347 0.0 1.6 0.00 0.00 0.00 99 1022.5
20260902104221 16 18 6.4 6.4 0.00 0.00 0.00 99 1022.3
20260902103720 16 26 3.2 4.8 0.00 0.00 0.00 99 1022.3
20260902103214 16 358 0.0 0.0 0.00 0.00 0.00 99 1022.2
20260902102710 16 297 0.0 1.6 0.00 0.00 0.00 99 1022.5
20260902102207 16 293 0.0 0.0 0.00 0.00 0.00 99 1022.4
20260902101708 16 305 0.0 1.6 0.00 0.00 0.00 99 1022.3
20260902101202 16 316 0.0 0.0 0.00 0.00 0.00 99 1022.3
20260902100656 16 345 0.0 0.0 0.00 0.00 0.00 99 1022.2
20260902100151 16 315 0.0 1.6 0.00 0.00 0.00 99 1022.2
20260902095650 16 311 0.0 0.0 0.00 0.00 0.00 99 1022.2
20260902095144 16 309 0.0 0.0 0.00 0.00 0.00 99 1021.9
20260902094639 16 12 0.0 1.6 0.00 0.00 0.00 99 1022.2
20260902094136 16 31 1.6 1.6 0.00 0.00 0.00 99 1022.3
20260902093635 16 348 1.6 1.6 0.00 0.00 0.00 99 1022.1
20260902093130 16 313 0.0 0.0 0.00 0.00 0.00 99 1022.2
20260902092624 16 324 0.0 0.0 0.00 0.00 0.00 99 1022.4
20260902092120 16 319 0.0 0.0 0.00 0.00 0.00 99 1022.2
20260902091614 16 17 1.6 1.6 0.00 0.00 0.00 99 1022.2
20260902091111 16 326 0.0 0.0 0.00 0.00 0.00 99 1022.2
20260902090607 16 324 0.0 0.0 0.00 0.00 0.00 99 1022.1
20260902090105 16 293 0.0 0.0 0.00 0.00 0.00 99 1022.2
20260902085600 16 69 0.0 0.0 0.00 0.00 0.00 99 1022.2
20260902085055 16 324 0.0 0.0 0.00 0.00 0.00 99 1022.0
20260902084551 16 309 0.0 0.0 0.00 0.00 0.00 99 1022.2
20260902084046 16 330 0.0 0.0 0.00 0.00 0.00 99 1022.1
20260902083536 16 358 0.0 0.0 0.00 0.00 0.00 99 1022.2
20260902083036 16 330 0.0 0.0 0.00 0.00 0.00 99 1022.0
20260902082532 16 315 0.0 0.0 0.00 0.00 0.00 99 1022.2
20260902082028 16 343 0.0 0.0 0.00 0.00 0.00 99 1022.2
20260902081525 16 339 0.0 0.0 0.00 0.00 0.00 99 1022.0
20260902081024 16 311 0.0 0.0 0.00 0.00 0.00 99 1022.1
20260902080520 16 332 0.0 0.0 0.00 0.00 0.00 99 1022.2
20260902080016 16 316 0.0 0.0 0.00 0.00 0.00 99 1022.1
20260902075510 16 303 0.0 0.0 0.00 0.00 0.00 99 1021.9
20260902075006 16 325 0.0 0.0 0.00 0.00 0.00 99 1021.8
20260902074501 16 312 0.0 0.0 0.00 0.00 0.00 99 1021.8
20260902073956 16 341 1.6 1.6 0.00 0.00 0.00 99 1021.7
20260902073452 16 311 0.0 0.0 0.00 0.00 0.00 99 1021.7
20260902072948 16 308 0.0 0.0 0.00 0.00 0.00 99 1021.8
20260902072444 16 311 0.0 0.0 0.00 0.00 0.00 99 1021.6
20260902071940 16 309 0.0 0.0 0.00 0.00 0.00 99 1021.6
20260902071439 16 310 0.0 0.0 0.00 0.00 0.00 99 1021.6
20260902070936 16 308 0.0 0.0 0.00 0.00 0.00 99 1021.5
20260902070431 16 335 0.0 0.0 0.00 0.00 0.00 99 1021.5
20260902065930 16 309 0.0 0.0 0.00 0.00 0.00 99 1021.6
20260902065425 16 300 0.0 0.0 0.00 0.00 0.00 99 1021.6
20260902064921 16 309 0.0 0.0 0.00 0.00 0.00 99 1021.5
20260902064416 16 308 0.0 0.0 0.00 0.00 0.00 99 1021.3
20260902063911 16 303 0.0 0.0 0.00 0.00 0.00 99 1021.4
20260902063411 16 330 0.0 0.0 0.00 0.00 0.00 99 1021.3
20260902062907 16 304 0.0 0.0 0.00 0.00 0.00 99 1021.5
20260902062406 16 312 0.0 0.0 0.00 0.00 0.00 99 1021.4
20260902061905 16 310 0.0 0.0 0.00 0.00 0.00 99 1021.4
20260902061401 16 303 0.0 0.0 0.00 0.00 0.00 99 1021.7
20260902060857 16 306 0.0 0.0 0.00 0.00 0.00 99 1021.5
20260902060352 16 319 0.0 0.0 0.00 0.00 0.00 99 1021.5
20260902055848 16 299 0.0 0.0 0.00 0.00 0.00 99 1021.5
20260902055344 16 328 0.0 0.0 0.00 0.00 0.00 99 1021.7
20260902054839 16 314 0.0 0.0 0.00 0.00 0.00 99 1021.4
20260902054335 16 301 0.0 0.0 0.00 0.00 0.00 99 1021.6
20260902053830 16 305 0.0 0.0 0.00 0.00 0.00 99 1021.2
20260902053325 16 300 0.0 0.0 0.00 0.00 0.00 99 1021.3
20260902052824 16 296 0.0 0.0 0.00 0.00 0.00 99 1021.0
20260902052320 16 311 0.0 0.0 0.00 0.00 0.00 99 1020.9
20260902051820 16 275 1.6 1.6 0.00 0.00 0.00 99 1020.9
20260902051314 16 1 1.6 1.6 0.00 0.00 0.00 99 1020.8
20260902050809 17 304 0.0 0.0 0.00 0.00 0.00 99 1020.8
20260902050308 17 316 0.0 0.0 0.00 0.00 0.00 99 1020.6
20260902045803 17 309 0.0 0.0 0.00 0.00 0.00 99 1020.7
20260902045259 17 342 1.6 1.6 0.00 0.00 0.00 99 1020.6
20260902044755 17 292 0.0 0.0 0.00 0.00 0.00 99 1020.7
20260902044250 17 298 0.0 0.0 0.00 0.00 0.00 99 1020.6
20260902043744 17 297 0.0 0.0 0.00 0.00 0.00 99 1020.7
20260902043240 17 302 0.0 0.0 0.00 0.00 0.00 99 1020.6
20260902042739 17 304 0.0 0.0 0.00 0.00 0.00 99 1020.7
20260902042234 17 314 0.0 0.0 0.00 0.00 0.00 99 1020.6
20260902041730 17 321 0.0 0.0 0.00 0.00 0.00 99 1020.6
20260902041225 17 310 0.0 0.0 0.00 0.00 0.00 99 1020.4
20260902040724 17 306 0.0 0.0 0.00 0.00 0.00 99 1020.4
20260902040220 17 299 0.0 0.0 0.00 0.00 0.00 99 1020.4
20260902035718 17 306 0.0 0.0 0.00 0.00 0.00 99 1020.3
20260902035214 17 322 0.0 0.0 0.00 0.00 0.00 99 1020.5
20260902034713 17 308 0.0 0.0 0.00 0.00 0.00 99 1020.4
20260902034213 17 304 0.0 0.0 0.00 0.00 0.00 99 1020.5
20260902033711 17 333 0.0 0.0 0.00 0.00 0.00 99 1020.4
20260902033206 17 306 0.0 0.0 0.00 0.00 0.00 99 1020.2
20260902032705 17 299 0.0 0.0 0.00 0.00 0.00 99 1020.3
20260902032200 17 296 0.0 0.0 0.00 0.00 0.00 99 1020.3
20260902031654 17 296 0.0 0.0 0.00 0.00 0.00 99 1020.2
20260902031150 17 298 0.0 0.0 0.00 0.00 0.00 99 1020.1
20260902030646 17 308 0.0 0.0 0.00 0.00 0.00 99 1019.9
20260902030145 17 347 1.6 1.6 0.00 0.00 0.00 99 1019.9
20260902025644 17 344 0.0 0.0 0.00 0.00 0.00 99 1019.8
20260902025140 17 317 0.0 1.6 0.00 0.00 0.00 99 1019.7
20260902024635 17 312 0.0 0.0 0.00 0.00 0.00 99 1019.8
20260902024130 17 313 0.0 0.0 0.00 0.00 0.00 99 1019.9
20260902023626 17 301 0.0 0.0 0.00 0.00 0.00 99 1020.0
20260902023120 17 298 0.0 0.0 0.00 0.00 0.00 99 1019.9
20260902022619 17 304 0.0 0.0 0.00 0.00 0.00 99 1019.8
20260902022116 17 296 0.0 0.0 0.00 0.00 0.00 99 1020.0
20260902021611 17 303 0.0 0.0 0.00 0.00 0.00 99 1019.9
20260902021106 17 274 0.0 0.0 0.00 0.00 0.00 99 1020.0
20260902020602 17 329 0.0 0.0 0.00 0.00 0.00 99 1019.9
20260902020057 17 313 0.0 0.0 0.00 0.00 0.00 99 1019.9
20260902015553 17 356 0.0 0.0 0.00 0.00 0.00 99 1019.8
20260902015048 17 311 0.0 0.0 0.00 0.00 0.00 99 1020.0
20260902014544 17 330 0.0 0.0 0.00 0.00 0.00 99 1020.0
20260902014039 17 304 0.0 0.0 0.00 0.00 0.00 99 1020.2
20260902013539 17 318 0.0 0.0 0.00 0.00 0.00 99 1020.2
20260902013035 17 312 0.0 0.0 0.00 0.00 0.00 99 1020.1
20260902012530 17 305 0.0 0.0 0.00 0.00 0.00 99 1020.1
20260902012025 17 319 0.0 0.0 0.00 0.00 0.00 99 1020.1
20260902011520 17 322 0.0 0.0 0.00 0.00 0.00 99 1020.1
20260902011015 17 317 0.0 0.0 0.00 0.00 0.00 99 1020.0
20260902010515 17 292 0.0 0.0 0.00 0.00 0.00 99 1020.0
20260902010010 17 307 0.0 0.0 0.00 0.00 0.00 99 1019.9
20260902005508 17 269 0.0 0.0 0.00 0.00 0.00 99 1019.7
20260902005005 17 194 0.0 1.6 0.00 0.00 0.00 99 1019.8
20260902004504 17 312 0.0 0.0 0.00 0.00 0.00 99 1019.7
20260902003959 17 253 0.0 0.0 0.00 0.00 0.00 99 1020.0
20260902003454 17 301 0.0 0.0 0.00 0.00 0.00 99 1019.7
20260902002950 17 289 0.0 0.0 0.00 0.00 0.00 99 1019.5
20260902002445 17 311 0.0 0.0 0.00 0.00 0.00 99 1019.5
20260902001944 17 310 0.0 0.0 0.00 0.00 0.00 99 1019.4
20260902001439 17 327 1.6 1.6 0.00 0.00 0.00 99 1019.6
20260902000934 17 325 0.0 0.0 0.00 0.00 0.00 99 1019.4
20260902000429 17 3 1.6 1.6 0.00 0.00 0.00 99 1019.4
20260901235924 17 34 0.0 1.6 0.00 0.00 0.00 99 1019.4
20260901235419 17 317 0.0 0.0 0.00 0.00 0.00 99 1019.3
20260901234914 17 322 0.0 0.0 0.00 0.00 0.00 99 1019.4
20260901234408 17 314 0.0 0.0 0.00 0.00 0.00 99 1019.3
20260901233903 17 315 0.0 0.0 0.00 0.00 0.00 99 1019.5
20260901233358 17 19 0.0 0.0 0.00 0.00 0.00 99 1019.4
20260901232855 17 314 0.0 0.0 0.00 0.00 0.00 99 1019.3
20260901232349 17 317 0.0 1.6 0.00 0.00 0.00 99 1019.5
20260901231845 17 348 1.6 1.6 0.00 0.00 0.00 99 1019.5
20260901231341 17 337 1.6 3.2 0.00 0.00 0.00 99 1019.3
20260901230837 17 289 1.6 1.6 0.00 0.00 0.00 99 1019.3
20260901230336 17 292 3.2 3.2 0.00 0.00 0.00 99 1019.2
20260901225832 17 300 1.6 1.6 0.00 0.00 0.00 99 1019.5
20260901225331 17 46 1.6 1.6 0.00 0.00 0.00 99 1019.1
20260901224826 18 46 4.8 6.4 0.00 0.00 0.00 98 1019.0
20260901224323 18 36 1.6 3.2 0.00 0.00 0.00 98 1019.1
20260901223819 18 331 0.0 1.6 0.00 0.00 0.00 97 1019.1
20260901223314 18 338 1.6 3.2 0.00 0.00 0.00 97 1019.0
20260901222810 18 5 1.6 1.6 0.00 0.00 0.00 97 1019.0
20260901222306 18 194 1.6 1.6 0.00 0.00 0.00 97 1018.8
20260901221802 18 216 3.2 4.8 0.00 0.00 0.00 96 1019.0
20260901221256 18 199 4.8 6.4 0.00 0.00 0.00 95 1019.0
20260901220750 18 0 1.6 1.6 0.00 0.00 0.00 95 1019.0
20260901220244 18 112 3.2 4.8 0.00 0.00 0.00 94 1019.0
20260901215743 19 296 0.0 1.6 0.00 0.00 0.00 94 1019.0
20260901215237 19 281 3.2 3.2 0.00 0.00 0.00 93 1019.2
20260901214736 19 355 4.8 4.8 0.00 0.00 0.00 93 1018.9
20260901214229 19 12 3.2 4.8 0.00 0.00 0.00 92 1019.0
20260901213729 19 314 1.6 1.6 0.00 0.00 0.00 93 1018.8
20260901213229 19 119 1.6 3.2 0.00 0.00 0.00 93 1018.7
20260901212729 18 1 3.2 4.8 0.00 0.00 0.00 93 1018.7
20260901212225 19 101 4.8 4.8 0.00 0.00 0.00 92 1018.6
20260901211720 19 25 1.6 1.6 0.00 0.00 0.00 92 1018.6
20260901211216 19 356 3.2 4.8 0.00 0.00 0.00 92 1018.6
20260901210712 19 30 3.2 4.8 0.00 0.00 0.00 92 1018.5
20260901210208 20 76 6.4 9.7 0.00 0.00 0.00 91 1018.5
20260901205703 20 25 3.2 4.8 0.00 0.00 0.00 90 1018.3
20260901205158 20 199 1.6 1.6 0.00 0.00 0.00 91 1018.5
20260901204653 20 92 3.2 4.8 0.00 0.00 0.00 90 1018.5
20260901204149 20 71 3.2 4.8 0.00 0.00 0.00 90 1018.5
20260901203649 20 278 3.2 3.2 0.00 0.00 0.00 90 1018.3
20260901203144 20 28 3.2 3.2 0.00 0.00 0.00 90 1018.4
20260901202643 20 21 4.8 4.8 0.00 0.00 0.00 89 1018.2
20260901202139 20 105 3.2 3.2 0.00 0.00 0.00 89 1018.2
20260901201635 20 333 4.8 4.8 0.00 0.00 0.00 88 1018.1
20260901201133 21 66 4.8 9.7 0.00 0.00 0.00 87 1018.1
20260901200627 21 10 8.0 9.7 0.00 0.00 0.00 86 1018.1
20260901200123 21 224 0.0 1.6 0.00 0.00 0.00 87 1018.3
20260901195620 21 314 3.2 3.2 0.00 0.00 0.00 86 1018.1
20260901195115 21 49 6.4 11.3 0.00 0.00 0.00 88 1018.2
20260901194610 20 345 0.0 1.6 0.00 0.00 0.00 86 1018.2
20260901194105 20 282 0.0 1.6 0.00 0.00 0.00 87 1018.1
20260901193601 20 0 4.8 6.4 0.00 0.00 0.00 86 1018.3
20260901193055 20 337 1.6 1.6 0.00 0.00 0.00 86 1018.1
20260901192550 21 198 3.2 3.2 0.00 0.00 0.00 84 1018.3
20260901192045 21 50 1.6 1.6 0.00 0.00 0.00 82 1018.3
20260901191542 21 189 4.8 4.8 0.00 0.00 0.00 81 1018.3
20260901191037 21 54 1.6 1.6 0.00 0.00 0.00 80 1018.4
20260901190532 21 286 1.6 3.2 0.00 0.00 0.00 79 1018.3
20260901190031 22 289 1.6 1.6 0.00 0.00 0.00 77 1018.5
20260901185525 22 324 3.2 4.8 0.00 0.00 0.00 76 1018.3
20260901185024 22 188 1.6 3.2 0.00 0.00 0.00 75 1018.2
20260901184519 22 18 3.2 4.8 0.00 0.00 0.00 73 1018.2
20260901184015 23 258 3.2 4.8 0.00 0.00 0.00 71 1018.3
20260901183509 23 148 4.8 6.4 0.00 0.00 0.00 67 1018.3
20260901183005 24 51 3.2 6.4 0.00 0.00 0.00 67 1018.1
20260901182501 23 248 3.2 6.4 0.00 0.00 0.00 67 1018.0
20260901182000 24 304 0.0 0.0 0.00 0.00 0.00 67 1018.1
20260901181455 23 324 0.0 0.0 0.00 0.00 0.00 67 1018.0
20260901180954 22 352 1.6 1.6 0.00 0.00 0.00 63 1018.0
20260901180453 23 337 3.2 4.8 0.00 0.00 0.00 66 1018.0
20260901175951 23 308 0.0 0.0 0.00 0.00 0.00 64 1018.1
20260901175446 23 343 4.8 4.8 0.00 0.00 0.00 61 1017.8
20260901174942 23 245 1.6 1.6 0.00 0.00 0.00 62 1018.0
20260901174437 23 227 1.6 1.6 0.00 0.00 0.00 63 1018.1
20260901173933 22 330 1.6 1.6 0.00 0.00 0.00 67 1017.8
20260901173428 22 350 0.0 1.6 0.00 0.00 0.00 65 1018.3
20260901172924 22 101 0.0 1.6 0.00 0.00 0.00 66 1018.0
20260901172419 23 56 1.6 3.2 0.00 0.00 0.00 64 1018.1
20260901171917 23 172 0.0 1.6 0.00 0.00 0.00 64 1017.9
20260901171416 23 34 3.2 3.2 0.00 0.00 0.00 66 1018.0
20260901170914 23 349 3.2 3.2 0.00 0.00 0.00 62 1017.9
20260901170404 23 11 0.0 1.6 0.00 0.00 0.00 65 1018.1
20260901165903 22 324 0.0 0.0 0.00 0.00 0.00 65 1018.1
20260901165358 23 142 1.6 3.2 0.00 0.00 0.00 66 1018.2
20260901164855 22 268 1.6 1.6 0.00 0.00 0.00 66 1018.1
20260901164350 22 48 1.6 3.2 0.00 0.00 0.00 68 1018.3
20260901163849 22 16 3.2 3.2 0.00 0.00 0.00 68 1018.3
20260901163344 21 62 3.2 6.4 0.00 0.00 0.00 69 1018.2
20260901162839 21 40 3.2 4.8 0.00 0.00 0.00 70 1018.4
20260901162338 21 277 1.6 1.6 0.00 0.00 0.00 70 1018.2
20260901161832 21 348 0.0 0.0 0.00 0.00 0.00 72 1018.3
20260901161327 21 40 0.0 1.6 0.00 0.00 0.00 71 1018.3
20260901160822 21 46 3.2 3.2 0.00 0.00 0.00 70 1018.3
20260901160319 21 353 3.2 3.2 0.00 0.00 0.00 69 1018.4
20260901155817 21 25 3.2 4.8 0.00 0.00 0.00 68 1018.3
20260901155312 21 70 3.2 3.2 0.00 0.00 0.00 69 1018.4
20260901154809 21 351 1.6 1.6 0.00 0.00 0.00 70 1018.5
20260901154308 21 226 1.6 1.6 0.00 0.00 0.00 70 1018.5
20260901153803 21 90 1.6 1.6 0.00 0.00 0.00 70 1018.4
20260901153303 21 17 3.2 4.8 0.00 0.00 0.00 68 1018.5
20260901152801 21 324 1.6 1.6 0.00 0.00 0.00 71 1018.4
20260901152301 21 161 1.6 1.6 0.00 0.00 0.00 71 1018.5
20260901151756 20 302 0.0 0.0 0.00 0.00 0.00 73 1018.4
20260901151255 20 335 0.0 0.0 0.00 0.00 0.00 73 1018.2
20260901150750 20 311 0.0 1.6 0.00 0.00 0.00 75 1018.2
20260901150248 20 329 0.0 1.6 0.00 0.00 0.00 74 1018.0
20260901145746 20 156 1.6 1.6 0.00 0.00 0.00 74 1017.9
20260901145240 20 340 3.2 4.8 0.00 0.00 0.00 73 1018.0
20260901144735 20 0 1.6 3.2 0.00 0.00 0.00 75 1018.0
20260901144231 20 1 3.2 3.2 0.00 0.00 0.00 73 1018.1
20260901143727 18 298 1.6 1.6 0.00 0.00 0.00 80 1018.1
20260901143222 18 348 3.2 3.2 0.00 0.00 0.00 77 1018.1
20260901142718 18 54 3.2 4.8 0.00 0.00 0.00 78 1018.2
20260901142217 18 42 3.2 4.8 0.00 0.00 0.00 76 1018.5